Location: Proctor
(47.8934°N, 114.3048°W)
Time: 23:15:48
(UTC+00:00)

S-56A Canister/Altair - Visible Passes

Search period start: 15 June 2024 00:00
Search period end: 25 June 2024 00:00
Orbit: 637 x 2489 km, 38.9° (Epoch: 15 June)

Date Brightness Start Highest point End Pass type
(mag) Time Alt. Az. Time Alt. Az. Time Alt. Az.
15 Jun 10.1 05:34:53 10° SSW 05:44:25 33° SE 05:56:21 10° E visible
15 Jun 9.9 07:36:45 10° WSW 07:48:49 55° SSE 08:03:15 10° E visible
15 Jun 10.0 09:40:56 10° W 09:54:32 58° S 10:08:48 10° ESE visible
16 Jun 10.1 05:01:50 10° SSW 05:10:32 29° SE 05:21:30 10° E visible
16 Jun 9.8 07:03:07 10° SW 07:14:33 52° SSE 07:28:45 10° E visible
16 Jun 10.0 09:06:56 10° W 09:20:06 59° S 09:34:36 10° ESE visible
17 Jun 10.2 04:28:56 10° S 04:36:43 25° SE 04:46:32 10° E visible
17 Jun 9.8 06:29:35 10° SW 06:40:20 49° SSE 06:54:10 10° E visible
17 Jun 9.9 08:33:01 10° WSW 08:45:41 59° S 09:00:19 10° ESE visible
17 Jun 10.2 10:37:57 10° W 10:51:15 47° SSW 11:04:42 10° SE visible
18 Jun 9.8 05:56:09 10° SW 06:06:14 46° SSE 06:19:31 10° E visible
18 Jun 9.8 07:59:13 10° WSW 08:11:18 59° S 08:25:55 10° ESE visible
18 Jun 10.1 10:03:49 10° W 10:16:54 49° SSW 10:30:45 10° SE visible
19 Jun 9.7 05:22:50 10° SW 05:32:12 42° SSE 05:44:49 10° E visible
19 Jun 9.7 07:25:30 10° WSW 07:36:58 58° S 07:51:27 10° ESE visible
19 Jun 10.0 09:29:47 10° W 09:42:32 51° SSW 09:56:41 10° SE visible
20 Jun 9.7 04:49:37 10° SSW 04:58:17 38° SSE 05:10:05 10° E visible
20 Jun 9.7 06:51:53 10° WSW 07:02:42 57° S 07:16:54 10° E visible
20 Jun 9.9 08:55:50 10° W 09:08:10 53° SSW 09:22:29 10° SE visible
21 Jun 9.8 04:16:30 10° SSW 04:24:27 34° SE 04:35:18 10° E visible
21 Jun 9.6 06:18:20 10° WSW 06:28:31 55° S 06:42:18 10° E visible
21 Jun 9.8 08:22:00 10° W 08:33:50 54° SSW 08:48:12 10° ESE visible
21 Jun 10.3 10:27:02 10° W 10:38:57 36° SSW 10:51:39 10° SSE visible
22 Jun 9.5 05:44:53 10° WSW 05:54:25 52° SSE 06:07:40 10° E visible
22 Jun 9.8 07:48:14 10° W 07:59:31 55° S 08:13:49 10° ESE visible
22 Jun 10.2 09:52:55 10° W 10:04:42 38° SSW 10:17:48 10° SSE visible
23 Jun 9.5 05:11:31 10° SW 05:20:23 49° SSE 05:33:00 10° E visible
23 Jun 9.7 07:14:34 10° W 07:25:15 56° S 07:39:21 10° ESE visible
23 Jun 10.1 09:18:55 10° W 09:30:27 41° SSW 09:43:49 10° SE visible
24 Jun 9.4 04:38:14 10° SW 04:46:28 46° SSE 04:58:18 10° E visible
24 Jun 9.6 06:40:58 10° WSW 06:51:04 55° S 07:04:49 10° ESE visible
24 Jun 10.0 08:45:01 10° W 08:56:12 43° SSW 09:09:42 10° SE visible
24 Jun 10.7 10:51:21 10° W 11:00:37 22° SW 11:10:30 10° S visible
